Track STARLINK-3285 now! 10-day predictions STARLINK-3285 is classified as:
1 50181U 21125AB 22182.28029305 .00000543 00000-0 52268-4 0 9999 2 50181 53.2173 177.8730 0002940 40.8664 319.2548 15.08845644 33197